Regional Weather Roundup
Issued by NWS Jackson, KY

Home | Current Version | Previous Version | Text Only | Print | Product List | Glossary Off
Versions: 1 2 3 4 5 6 7 8 9 10 11 12 13 14 15 16 17 18 19 20 21 22 23 24 25 26 27 28

000
ASUS43 KJKL 061310
RWRJKL

EAST KENTUCKY HOURLY WEATHER ROUNDUP
NATIONAL WEATHER SERVICE JACKSON KY
900 AM EDT FRI MAY 06 2016

NOTE: "FAIR" INDICATES FEW OR NO CLOUDS BELOW 12,000 FEET WITH
NO SIGNIFICANT WEATHER AND/OR OBSTRUCTIONS TO VISIBILITY.

* THESE REPORTS ARE NOT UNDER NWS QUALITY CONTROL AND MAY NOT
  REPORT WEATHER SUCH AS PRECIPITATION AND FOG.

KYZ079-080-083-085-087-088-110-112-115-119-120-061400
...EASTERN KENTUCKY...

CITY           SKY/WX    TMP DP  RH WIND       PRES   REMARKS
JACKSON        SUNNY     50  42  74 NW6       29.93R
LONDON         SUNNY     53  43  68 N6        29.95R
SOMERSET*      SUNNY     50  45  81 NW5       29.99R
MONTICELLO*    SUNNY     52  48  86 VRB7      30.00R
WILLIAMSBURG*  SUNNY     48  48 100 NW3       29.97R
MIDDLESBORO*   CLOUDY    52  42  70 NE3       29.96R
HARLAN APT*      N/A     50  41  71 CALM      29.93R
BLACK MTN*       N/A     37  39 100 N8          N/A  WCI  31
PIKE CO APT*     N/A     49  44  84 NW7       29.90S
BIG SANDY APT* SUNNY     51  44  77 CALM      29.91R
MOREHEAD APT*  SUNNY     50  45  81 VRB5      29.96R
$$

KYZ035-036-041-042-044-050-067-078-099-061400
...CENTRAL KENTUCKY...

CITY           SKY/WX    TMP DP  RH WIND       PRES   REMARKS
MT STERLING*   SUNNY     52  45  76 N6        29.98R
FLEMING/MASON* SUNNY     54  40  61 N6        29.97R
DANVILLE*      MOSUNNY   52  45  76 N9        30.00R
RICHMOND*      SUNNY     50  45  81 NW6       29.96R
LEXINGTON      MOSUNNY   53  46  77 N8        29.98R
FRANKFORT        N/A    N/A N/A N/A MISG      29.97R
LOUISVILLE     MOSUNNY   56  43  61 NW3       30.00R
LEBANON*         N/A     52  46  82 N6        30.00R
BOWLING GREEN  SUNNY     56  45  66 VRB3      30.03R
$$

KYZ091>093-OHZ055-061-077-WVZ005-015-034-035-042-061400
...SOUTHERN OHIO/WEST VIRGINIA...

CITY           SKY/WX    TMP DP  RH WIND       PRES   REMARKS
COVINGTON      MOSUNNY   55  44  66 N8        29.97R
COLUMBUS       MOSUNNY   53  40  61 N10       29.92R
DAYTON         MOSUNNY   53  44  71 N6        29.98R
WILMINGTON     SUNNY     53  41  63 N12       29.95R
HUNTINGTON       N/A     54  43  66 NW8       29.90R
CHARLESTON     PTSUNNY   52  46  80 VRB6      29.87R
PINEVILLE*     CLOUDY    49  44  82 MISG      29.91R
BECKLEY        CLOUDY    45  42  89 N7G18     29.84R
$$

VAZ002-007-008-TNZ017-027-036-066-071-061400
...SOUTHWEST VIRGINIA/EAST TENNESSEE...

CITY           SKY/WX    TMP DP  RH WIND       PRES   REMARKS
WISE*          CLOUDY    45  43  93 NW7       29.90R
BRISTOL        PTSUNNY   52  44  74 W9        29.89R
MORRISTOWN*    SUNNY     52  45  76 W6G12     29.93R
SEVIERVILLE*   SUNNY     52  45  76 SW6       29.94S
KNOXVILLE      MOSUNNY   51  46  83 SW5       29.96R
OAK RIDGE      SUNNY     52  44  74 S3        29.97R
CROSSVILLE     MOSUNNY   51  44  77 N9        29.98R
NASHVILLE      MOSUNNY   55  44  66 NW7       30.04R
$$

...KEY TO REMARKS...
VSB - VISIBILITY IN MILES
WCI - WIND CHILL INDEX
HX  - HEAT INDEX

$$




USA.gov is the U.S. government's official web portal to all federal, state and local government web resources and services.